Barrow, AK

6:16 AM AKDT on June 25, 2018 (GMT -0800)
Wiley Post-Will Rogers Memorial

Weather History for PABR - January, 2017

Change the Weather History Date:

Sunday, January 15, 2017

  Actual Average Record
Temperature  
Mean Temperature -16 °F -14 °F  
Max Temperature -8 °F -8 °F 32 °F (1957)
Min Temperature -24 °F -20 °F -53 °F (1951)
Degree Days  
Heating Degree Days 81 79  
Month to date heating degree days 824 1165  
Since 1 July heating degree days 7783 9374  
Cooling Degree Days 0 0  
Month to date cooling degree days 0 0  
Year to date cooling degree days 0 0  
Moisture  
Dew Point -19 °F    
Average Humidity 75    
Maximum Humidity 79    
Minimum Humidity 70    
Precipitation  
Precipitation T in 0.01 in 0.08 in (2009)
Month to date precipitation 0.46 0.07  
Year to date precipitation 0.46 0.07  
Snow  
Snow T in 0.10 in 1.80 in (2009)
Month to date snowfall 4.2 1.3  
Since 1 July snowfall 21.5 25.1  
Snow Depth 6.00 in    
Sea Level Pressure  
Sea Level Pressure 29.64 in    
Wind  
Wind Speed 13 mph (NE)    
Max Wind Speed 18 mph    
Max Gust Speed -    
Visibility 5 miles    
Events Snow    
T = Trace of Precipitation, MM = Missing Value Source: NWS Daily Summary

Daily Weather History Graph

Daily Weather History Graph

Search for Another Location

Airport or City:

Astronomy

Jan. 15, 2017 Rise Set
Actual Time 1:04 PM AKST 2:09 PM AKST
Civil Twilight 11:02 AM AKST 4:11 PM AKST
Nautical Twilight 9:20 AM AKST 5:53 PM AKST
Astronomical Twilight 7:59 AM AKST 7:14 PM AKST
Moon 9:25 PM AKST (1/15) 12:12 PM AKST (1/15)
Length of Visible Light 5h 08m
Length of Day
1h 04m
Waning Gibbous, 86% of the Moon is Illuminated
Jan 15
Waning Gibbous
Jan 19
Last Quarter
Jan 27
New
Feb 3
First Quarter
Feb 10
Full

Hourly Weather History & Observations

Time (AKST) Temp. Windchill Dew Point Humidity Pressure Visibility Wind Dir Wind Speed Gust Speed Precip Events Conditions
12:01 AM -14.1 °F -38.2 °F -20.0 °F 75% 29.73 in 1.5 mi NE 16.1 mph - N/A   Mostly Cloudy
12:41 AM -14.1 °F -39.6 °F -20.0 °F 75% 29.72 in 3.0 mi NE 18.4 mph - N/A   Mostly Cloudy
12:53 AM -14.1 °F -38.2 °F -20.0 °F 75% 29.73 in 5.0 mi NNE 16.1 mph - N/A   Scattered Clouds
1:53 AM -13.0 °F -37.5 °F -18.9 °F 75% 29.71 in 7.0 mi NE 17.3 mph - N/A   Clear
2:04 AM -13.0 °F -38.2 °F -18.9 °F 75% 29.70 in 5.0 mi NE 18.4 mph - N/A Snow Blowing Snow
2:53 AM -13.0 °F -36.0 °F -18.9 °F 75% 29.70 in 10.0 mi NE 15.0 mph - N/A   Scattered Clouds
3:53 AM -11.9 °F -35.4 °F -18.9 °F 71% 29.70 in 7.0 mi NNE 16.1 mph - N/A   Clear
4:24 AM -11.9 °F -35.4 °F -18.9 °F 71% 29.68 in 4.0 mi NNE 16.1 mph - N/A   Haze
4:34 AM -11.9 °F -35.4 °F -18.9 °F 71% 29.68 in 3.0 mi NE 16.1 mph - N/A   Haze
4:41 AM -11.9 °F -36.1 °F -18.9 °F 71% 29.68 in 2.5 mi NE 17.3 mph - N/A   Mostly Cloudy
4:51 AM -11.2 °F -33.7 °F -18.4 °F 70% 29.68 in 3.0 mi NE 15.0 mph - N/A   Mostly Cloudy
4:53 AM -11.9 °F -34.6 °F -18.9 °F 71% 29.69 in 4.0 mi NE 15.0 mph - N/A   Mostly Cloudy
5:02 AM -13.0 °F -35.2 °F -18.9 °F 75% 29.68 in 2.5 mi NE 13.8 mph - N/A   Mostly Cloudy
5:14 AM -11.9 °F -32.0 °F -18.9 °F 71% 29.68 in 1.5 mi NNE 11.5 mph - N/A   Mostly Cloudy
5:42 AM -11.9 °F -35.4 °F -18.0 °F 74% 29.67 in 3.0 mi NE 16.1 mph - N/A   Mostly Cloudy
5:53 AM -11.9 °F -33.8 °F -18.0 °F 74% 29.68 in 7.0 mi NNE 13.8 mph - N/A   Scattered Clouds
6:53 AM -11.9 °F -33.0 °F -17.0 °F 78% 29.67 in 10.0 mi NNE 12.7 mph - N/A   Clear
7:46 AM -9.9 °F -28.6 °F -16.1 °F 74% 29.65 in 4.0 mi NNE 10.4 mph - N/A   Scattered Clouds
7:53 AM -9.9 °F -28.6 °F -15.0 °F 78% 29.65 in 2.5 mi NNE 10.4 mph - N/A   Mostly Cloudy
8:11 AM -9.0 °F -28.4 °F -15.0 °F 75% 29.64 in 1.5 mi NNE 11.5 mph - 0.00 in Snow Light Snow
8:19 AM -9.9 °F -31.3 °F -15.0 °F 78% 29.64 in 1.8 mi North 13.8 mph - 0.00 in Snow Light Snow
8:27 AM -9.9 °F -31.3 °F -15.0 °F 78% 29.64 in 2.5 mi NNE 13.8 mph - 0.00 in Snow Light Snow
8:35 AM -9.9 °F -32.1 °F -15.0 °F 78% 29.64 in 3.0 mi North 15.0 mph - 0.00 in Snow Light Snow
8:53 AM -9.0 °F -30.2 °F -15.0 °F 75% 29.65 in 2.5 mi North 13.8 mph - 0.00 in Snow Light Snow
9:33 AM -9.9 °F -27.5 °F -15.0 °F 78% 29.63 in 9.0 mi NE 9.2 mph - 0.00 in   Partly Cloudy
9:53 AM -9.9 °F -27.5 °F -16.1 °F 74% 29.64 in 4.0 mi NE 9.2 mph - 0.00 in   Haze
10:40 AM -11.9 °F -27.3 °F -17.0 °F 78% 29.62 in 2.5 mi NE 6.9 mph - N/A   Scattered Clouds
10:43 AM -11.0 °F -27.6 °F -17.0 °F 75% 29.62 in 4.0 mi NNE 8.1 mph - N/A   Mostly Cloudy
10:53 AM -11.0 °F -27.6 °F -17.0 °F 75% 29.63 in 6.0 mi NNE 8.1 mph - N/A   Mostly Cloudy
11:31 AM -9.9 °F -27.5 °F -16.1 °F 74% 29.62 in 9.0 mi NE 9.2 mph - N/A   Scattered Clouds
11:53 AM -9.9 °F -26.3 °F -16.1 °F 74% 29.63 in 8.0 mi NNE 8.1 mph - N/A   Partly Cloudy
12:07 PM -9.0 °F -25.2 °F -14.1 °F 79% 29.62 in 3.0 mi NNE 8.1 mph - 0.00 in Snow Light Snow
12:53 PM -9.9 °F -21.5 °F -16.1 °F 74% 29.64 in 7.0 mi ENE 4.6 mph - 0.00 in   Clear
1:12 PM -9.9 °F -21.5 °F -16.1 °F 74% 29.63 in 5.0 mi ENE 4.6 mph - N/A   Mostly Cloudy
1:53 PM -11.9 °F -25.7 °F -17.0 °F 78% 29.64 in 5.0 mi NE 5.8 mph - N/A   Mostly Cloudy
2:07 PM -11.0 °F -20.4 °F -16.1 °F 78% 29.62 in 2.5 mi NNE 3.5 mph - 0.00 in Snow Light Snow
2:53 PM -11.0 °F -22.8 °F -17.0 °F 75% 29.63 in 3.0 mi ENE 4.6 mph - 0.00 in Snow Light Snow
3:21 PM -9.9 °F -24.9 °F -16.1 °F 74% 29.62 in 2.0 mi ENE 6.9 mph - 0.00 in Snow Light Snow
3:53 PM -9.9 °F -23.4 °F -16.1 °F 74% 29.62 in 3.0 mi ENE 5.8 mph - 0.00 in Snow Light Snow
4:53 PM -11.9 °F - -18.0 °F 74% 29.61 in 2.0 mi Calm Calm - 0.00 in Snow Light Snow
5:53 PM -16.1 °F -28.6 °F -23.1 °F 71% 29.60 in 2.0 mi South 4.6 mph - 0.00 in Snow Light Snow
5:56 PM -16.1 °F -32.3 °F -23.1 °F 71% 29.59 in 2.0 mi South 6.9 mph - 0.00 in Snow Light Snow
6:53 PM -15.0 °F -33.7 °F -20.9 °F 75% 29.59 in 5.0 mi South 9.2 mph - 0.00 in Snow Light Snow
7:53 PM -17.0 °F -34.8 °F -23.1 °F 74% 29.59 in 9.0 mi SSW 8.1 mph - 0.00 in   Clear
8:53 PM -16.1 °F -35.0 °F -20.9 °F 79% 29.58 in 5.0 mi South 9.2 mph - N/A   Haze
9:53 PM -20.9 °F -42.2 °F -27.0 °F 73% 29.58 in 10.0 mi South 10.4 mph - N/A   Scattered Clouds
10:00 PM -20.9 °F -41.0 °F -26.0 °F 77% 29.57 in 10.0 mi South 9.2 mph - N/A   Mostly Cloudy
10:15 PM -22.0 °F -43.6 °F -27.0 °F 77% 29.57 in 10.0 mi South 10.4 mph - N/A   Overcast
10:53 PM -22.0 °F -43.6 °F -29.0 °F 70% 29.57 in 10.0 mi South 10.4 mph - N/A   Overcast
11:53 PM -22.0 °F -42.3 °F -27.9 °F 74% 29.57 in 10.0 mi South 9.2 mph - N/A   Overcast